[[{"header":{"parameterUnit":"m.s-1","parameterCategory":1,"la1":30.2991,"la2":30.254,"lo1":-89.0895,"lo2":-89.0444,"dy":0.0017,"dx":0.0017,"nx":28,"ny":28,"refTime":"2024-04-23T03:00:00:Z","depth":0,"parameterNumber":2,"parameterNumberName":"U-component_of_WINDS"},"data":[0,0,0,0,0,0,0,0,0,0,0,0,0,0,0,0,0,0,0,0,0,0,0,0,0,0,0,0,0,0,0,0,0,0,0,0,0,0,0,0,0,0,0,0,0,0,0,0,0,0,0,0,0,0,0,0,0,0,-0.7314,-0.7312,0,-0.7206,-0.7205,-0.7204,-0.715,-0.715,-0.715,-0.715,-0.7038,-0.7035,-0.7032,0,0,0,0,0,0,0,0,0,0,0,0,0,-0.7471,-0.7468,-0.7314,-0.7312,-0.7311,-0.7207,-0.7205,-0.7204,-0.715,-0.715,-0.715,-0.715,-0.7039,-0.7035,-0.7031,0,0,0,0,0,0,0,0,0,0,0,0,0,-0.7387,-0.7467,-0.7314,-0.7272,-0.7267,-0.7207,-0.7205,-0.7203,-0.715,-0.715,-0.715,-0.715,-0.704,-0.7035,-0.7031,-0.7004,0,0,-0.7017,-0.7015,0,0,0,0,0,0,0,0,-0.7392,-0.7381,-0.7279,-0.7275,-0.7269,-0.7192,-0.7219,-0.7136,-0.715,-0.7194,-0.715,-0.715,-0.7089,-0.708,-0.706,-0.6999,-0.6994,-0.7017,-0.7014,-0.7012,-0.7011,0,0,0,0,0,0,0,-0.7398,-0.7385,-0.7271,-0.7278,-0.7272,-0.7258,-0.7246,-0.7203,-0.7143,-0.7191,-0.7186,-0.7175,-0.7086,-0.7064,-0.7057,-0.6992,-0.7017,-0.7013,-0.701,-0.7009,-0.6904,-0.6904,0,0,0,0,0,0,-0.741,-0.7391,-0.7275,-0.7268,-0.7332,-0.7255,-0.7242,-0.7216,-0.7143,-0.7132,-0.7175,-0.7172,-0.7072,-0.7062,-0.7053,-0.7016,-0.7012,-0.7008,-0.7006,-0.6904,-0.6904,-0.6903,0,0,0,0,0,0,-0.7414,-0.7401,-0.7279,-0.7328,-0.7312,-0.7252,-0.7224,-0.7214,-0.7193,-0.7131,-0.712,-0.7164,-0.7072,-0.7059,-0.7017,-0.7012,-0.7006,-0.7002,-0.6904,-0.6904,-0.6904,-0.6944,0,0,0,0,0,0,-0.7419,-0.7402,-0.7392,-0.7328,-0.7309,-0.7245,-0.7224,-0.7212,-0.7186,-0.7182,-0.7118,-0.7108,-0.7071,-0.7024,-0.7012,-0.7005,-0.6999,-0.6904,-0.6904,-0.6904,-0.6942,-0.6945,-0.6947,0,0,0,0,0,-0.7425,-0.7406,-0.7391,-0.7378,-0.7295,-0.7245,-0.7234,-0.7192,-0.7186,-0.7174,-0.7135,-0.711,-0.7015,-0.702,-0.7007,-0.6998,-0.6904,-0.6904,-0.6904,-0.6941,-0.6944,-0.6947,0,0,0,0,0,0,-0.7469,-0.7397,-0.738,-0.7341,-0.73,-0.7236,-0.722,-0.7197,-0.7156,-0.7154,-0.7103,-0.709,-0.7052,-0.7021,-0.7028,-0.6969,-0.6957,-0.6954,-0.699,-0.6992,-0.6995,-0.7002,-0.6995,0,0,0,0,0,-0.7475,-0.7441,-0.738,-0.7351,-0.7332,-0.728,-0.7257,-0.7228,-0.7183,-0.7165,-0.7123,-0.7079,-0.704,-0.7014,-0.6974,-0.6938,-0.6923,-0.6926,-0.6928,-0.693,-0.6928,-0.6907,-0.6907,-0.6903,-0.6903,-0.6903,0,0,-0.7486,-0.7442,-0.7424,-0.7359,-0.7324,-0.729,-0.7265,-0.723,-0.7204,-0.7159,-0.7117,-0.7085,-0.7033,-0.6994,-0.6974,-0.6967,-0.6926,-0.693,-0.6932,-0.6929,-0.6907,-0.6907,-0.6908,-0.6903,-0.6903,-0.6903,0,0,-0.7487,-0.7451,-0.7424,-0.739,-0.7337,-0.7303,-0.7297,-0.7237,-0.7214,-0.7171,-0.7137,-0.7105,-0.7038,-0.7002,-0.6976,-0.6966,-0.6942,-0.6955,-0.6966,-0.6946,-0.6946,-0.6946,-0.6943,-0.6942,-0.6953,-0.6953,-0.6953,0,-0.7507,-0.7455,-0.7412,-0.7379,-0.7352,-0.7312,-0.7283,-0.7252,-0.7189,-0.7171,-0.7163,-0.7079,-0.7041,-0.6993,-0.6991,-0.6971,-0.6962,-0.6961,-0.695,-0.6949,-0.6949,-0.6945,-0.6944,-0.6955,-0.6955,-0.6954,-0.6954,0,-0.7481,-0.7446,-0.743,-0.7371,-0.7342,-0.7311,-0.7264,-0.724,-0.7215,-0.7182,-0.7138,-0.7092,-0.7042,-0.7029,-0.7004,-0.6978,-0.6975,-0.696,-0.6946,-0.6952,-0.6947,-0.6945,-0.6957,-0.6957,-0.6956,-0.6956,0,0,-0.7507,-0.7427,-0.7421,-0.7395,-0.7334,-0.7306,-0.7274,-0.7226,-0.7206,-0.7164,-0.7136,-0.7081,-0.7066,-0.7036,-0.7007,-0.6989,-0.6985,-0.6976,-0.6974,-0.6979,-0.6954,-0.6965,-0.6964,-0.6969,-0.6968,-0.6968,-0.6958,0,-0.75,-0.7441,-0.7403,-0.7359,-0.7326,-0.7288,-0.726,-0.722,-0.7188,-0.7155,-0.7119,-0.7081,-0.7065,-0.7047,-0.7028,-0.6989,-0.6979,-0.699,-0.6941,-0.694,-0.6955,-0.6962,-0.6974,-0.6967,-0.6956,-0.6956,-0.6955,0,-0.7484,-0.7445,-0.7398,-0.7342,-0.7327,-0.7302,-0.7256,-0.7225,-0.7179,-0.7157,-0.7124,-0.7095,-0.7059,-0.705,-0.7,-0.7008,-0.6986,-0.6965,-0.6963,-0.6956,-0.6948,-0.6955,-0.6963,-0.6962,-0.6952,-0.6952,-0.6953,0,-0.7507,-0.7442,-0.7406,-0.7384,-0.7319,-0.7302,-0.7274,-0.7228,-0.7202,-0.7162,-0.7145,-0.71,-0.7076,-0.7042,-0.7001,-0.6999,-0.6956,-0.6943,-0.6936,-0.6937,-0.6928,-0.6929,-0.6932,-0.6915,-0.6915,-0.6915,-0.6915,0,-0.7503,-0.7476,-0.7416,-0.7393,-0.7362,-0.7318,-0.7288,-0.7257,-0.7216,-0.7187,-0.7151,-0.7125,-0.7073,-0.7039,-0.7007,-0.6971,-0.696,-0.6941,-0.6933,-0.6944,-0.6946,-0.6928,-0.6927,-0.6915,-0.6915,-0.6915,-0.6915,0,-0.7524,-0.7482,-0.744,-0.7382,-0.7367,-0.7346,-0.7296,-0.7273,-0.724,-0.7203,-0.7192,-0.714,-0.7099,-0.7056,-0.7,-0.6978,-0.6943,-0.6932,-0.6959,-0.6954,-0.6949,-0.695,-0.6941,-0.6937,-0.6923,-0.6924,-0.6924,0,-0.7523,-0.7502,-0.7442,-0.742,-0.7393,-0.7358,-0.7332,-0.7289,-0.7263,-0.721,-0.7193,-0.715,-0.7113,-0.7049,-0.7006,-0.6963,-0.695,-0.695,-0.6943,-0.6956,-0.695,-0.6951,-0.6949,-0.6952,-0.6952,-0.6952,-0.6953,0,-0.7528,-0.7509,-0.7473,-0.743,-0.74,-0.7364,-0.7327,-0.7311,-0.726,-0.7233,-0.7191,-0.7163,-0.7106,-0.7064,-0.7016,-0.6986,-0.6961,-0.6955,-0.6951,-0.6962,-0.6979,-0.6969,-0.6964,-0.6955,-0.6955,-0.6955,-0.6955,-0.6955,-0.7537,-0.7516,-0.7471,-0.7433,-0.74,-0.7366,-0.7342,-0.7307,-0.7272,-0.7223,-0.7199,-0.7158,-0.7113,-0.7047,-0.7018,-0.6985,-0.6977,-0.6971,-0.6969,-0.6969,-0.6972,-0.6985,-0.6976,-0.6976,-0.6975,-0.6975,-0.6975,0,-0.7539,-0.7509,-0.7474,-0.7423,-0.7393,-0.7373,-0.7331,-0.7307,-0.7271,-0.7232,-0.7197,-0.7149,-0.7108,-0.7063,-0.7019,-0.7001,-0.6988,-0.6991,-0.6991,-0.6985,-0.6981,-0.6989,-0.7002,-0.7002,-0.7002,-0.7002,-0.7002,-0.7002,-0.7537,-0.7501,-0.7477,-0.7424,-0.7394,-0.7353,-0.7331,-0.73,-0.7268,-0.7217,-0.7183,-0.7154,-0.7113,-0.7066,-0.7027,-0.7015,-0.7,-0.7006,-0.699,-0.6987,-0.6985,-0.6983,-0.699,-0.7003,-0.7003,-0.6997,-0.6997,-0.6997]},{"header":{"parameterUnit":"m.s-1","parameterCategory":1,"la1":30.2991,"la2":30.254,"lo1":-89.0895,"lo2":-89.0444,"dy":0.0017,"dx":0.0017,"nx":28,"ny":28,"refTime":"2024-04-23T03:00:00:Z","depth":0,"parameterNumber":3,"parameterNumberName":"V-component_of_WINDS"},"data":[0,0,0,0,0,0,0,0,0,0,0,0,0,0,0,0,0,0,0,0,0,0,0,0,0,0,0,0,0,0,0,0,0,0,0,0,0,0,0,0,0,0,0,0,0,0,0,0,0,0,0,0,0,0,0,0,0,0,2.0564,2.0564,0,2.0539,2.0539,2.0539,2.0568,2.0569,2.057,2.0571,2.0543,2.0541,2.0539,0,0,0,0,0,0,0,0,0,0,0,0,0,2.0634,2.0632,2.0564,2.0564,2.0563,2.0539,2.0539,2.0539,2.0568,2.0569,2.0571,2.0572,2.0543,2.0541,2.0539,0,0,0,0,0,0,0,0,0,0,0,0,0,2.0605,2.0632,2.0564,2.0575,2.0576,2.0539,2.0539,2.0538,2.0568,2.0569,2.0571,2.0572,2.0544,2.0541,2.0539,2.0489,0,0,2.053,2.0529,0,0,0,0,0,0,0,0,2.0607,2.0603,2.0574,2.0574,2.0575,2.0559,2.0553,2.0522,2.0567,2.0571,2.0571,2.0573,2.0546,2.0544,2.0535,2.0487,2.0486,2.053,2.0529,2.0527,2.0527,0,0,0,0,0,0,0,2.0609,2.0604,2.0554,2.0573,2.0574,2.058,2.0578,2.0547,2.0549,2.057,2.0573,2.0569,2.0547,2.0538,2.0535,2.0486,2.053,2.0528,2.0526,2.0525,2.0396,2.0394,0,0,0,0,0,0,2.061,2.0606,2.0555,2.0553,2.0596,2.0578,2.0575,2.0562,2.055,2.055,2.0568,2.0571,2.0541,2.0538,2.0534,2.0474,2.0527,2.0525,2.0523,2.0397,2.0395,2.0393,0,0,0,0,0,0,2.0611,2.0605,2.0556,2.058,2.0574,2.0575,2.056,2.0561,2.0551,2.0548,2.0548,2.0558,2.0543,2.0538,2.05,2.0473,2.0524,2.0521,2.0399,2.0397,2.0394,2.0354,0,0,0,0,0,0,2.0613,2.0606,2.0587,2.0579,2.0573,2.0523,2.0558,2.0559,2.0547,2.0551,2.0539,2.0539,2.0544,2.0504,2.0497,2.0471,2.0519,2.0402,2.0398,2.0395,2.0358,2.0351,2.0344,0,0,0,0,0,2.0616,2.0576,2.0586,2.058,2.055,2.0521,2.0518,2.0525,2.0545,2.0526,2.0524,2.0539,2.0478,2.05,2.0493,2.0465,2.0403,2.0399,2.0395,2.0361,2.0352,2.0345,0,0,0,0,0,0,2.058,2.0576,2.0586,2.0544,2.0533,2.0527,2.0503,2.0515,2.0498,2.0502,2.0511,2.0508,2.0468,2.0463,2.0487,2.0416,2.0444,2.0438,2.042,2.0412,2.0405,2.0406,2.0517,0,0,0,0,0,2.0567,2.0545,2.0542,2.0505,2.0499,2.0502,2.049,2.0497,2.0485,2.0481,2.0476,2.0463,2.0441,2.0426,2.0406,2.0358,2.0355,2.0336,2.0329,2.0323,2.0317,2.0291,2.0282,2.038,2.038,2.038,0,0,2.054,2.0535,2.0521,2.0498,2.049,2.0466,2.0498,2.0471,2.0453,2.0476,2.044,2.0436,2.0423,2.038,2.0361,2.0374,2.029,2.0318,2.0313,2.0311,2.0286,2.0277,2.0269,2.0377,2.0377,2.0378,0,0,2.0479,2.0473,2.0441,2.0433,2.0422,2.0424,2.0417,2.0409,2.0407,2.0372,2.0389,2.0367,2.0329,2.0319,2.0309,2.0244,2.0257,2.0237,2.0201,2.0175,2.0167,2.0161,2.0137,2.0128,2.0232,2.0232,2.0232,0,2.0446,2.0412,2.0423,2.0395,2.0384,2.0405,2.0372,2.0364,2.0346,2.0337,2.0354,2.0307,2.0299,2.0254,2.0238,2.023,2.022,2.0238,2.0168,2.0161,2.0155,2.0132,2.0123,2.023,2.023,2.023,2.023,0,2.0372,2.0348,2.0323,2.0307,2.0293,2.0263,2.0268,2.0253,2.0261,2.0262,2.0225,2.0217,2.0195,2.0185,2.0193,2.0141,2.015,2.0167,2.0195,2.0143,2.0122,2.0113,2.0226,2.0227,2.0228,2.0228,0,0,2.0285,2.0276,2.0267,2.026,2.0249,2.023,2.0201,2.0181,2.0167,2.0154,2.0129,2.0097,2.0113,2.0101,2.0108,2.0086,2.0034,2.0105,2.0105,2.0091,1.9975,1.9962,1.9951,2.0043,2.0042,2.004,1.9976,0,2.0223,2.0173,2.0182,2.0133,2.0111,2.0131,2.0105,2.0096,2.0095,2.0075,2.0075,2.0052,2.0075,2.0068,2.0047,2.0045,2.0011,2.005,2.0019,2.0017,2.002,1.994,1.9926,1.9865,1.9968,1.9967,1.9966,0,2.0143,2.0129,2.0077,2.0071,2.0062,2.0038,2.0021,2.0002,1.9991,1.9993,1.998,1.9991,1.9961,1.9991,1.9949,1.9975,1.9963,1.996,1.9958,1.9954,1.9987,1.9933,1.9846,1.9837,1.9953,1.9954,1.9955,0,2.0084,2.0051,2.0017,2.001,2.0002,1.9985,1.998,1.9971,1.9959,1.9943,1.9935,1.9916,1.9905,1.9889,1.9895,1.9916,1.9851,1.9881,1.985,1.985,1.9834,1.9835,1.9743,1.9829,1.9829,1.9829,1.9829,0,2.0012,1.998,1.999,1.9968,1.9933,1.9944,1.9907,1.9905,1.9897,1.9875,1.9892,1.987,1.9879,1.9858,1.9862,1.9826,1.9821,1.982,1.9822,1.9818,1.9818,1.9809,1.9813,1.9827,1.9827,1.9828,1.9828,0,1.9939,1.9945,1.9908,1.9904,1.9902,1.9876,1.9871,1.9851,1.9853,1.9824,1.9818,1.982,1.9796,1.98,1.9773,1.9776,1.9731,1.9738,1.9735,1.9736,1.9704,1.9706,1.9602,1.9589,1.9684,1.9683,1.9682,0,1.9892,1.9868,1.9862,1.9849,1.9843,1.9822,1.9809,1.9819,1.9806,1.9792,1.9773,1.9751,1.9733,1.9694,1.9692,1.9672,1.9678,1.9642,1.9674,1.9672,1.9676,1.9677,1.9674,1.9635,1.9634,1.9634,1.9633,0,1.9809,1.9813,1.9795,1.9778,1.9763,1.975,1.9738,1.9726,1.9735,1.9719,1.9695,1.9682,1.9655,1.9633,1.9614,1.9608,1.9621,1.9623,1.9615,1.961,1.9609,1.9608,1.9716,1.9625,1.9626,1.9626,1.9627,1.9627,1.9746,1.9726,1.9718,1.9698,1.969,1.9679,1.966,1.966,1.964,1.962,1.9627,1.96,1.959,1.9566,1.9559,1.9537,1.955,1.9538,1.9534,1.9531,1.9527,1.9614,1.9534,1.9534,1.9534,1.9534,1.9534,0,1.9663,1.9659,1.964,1.9624,1.9608,1.9624,1.9612,1.9596,1.9573,1.9563,1.9546,1.9519,1.9497,1.9494,1.9474,1.9457,1.9462,1.9451,1.9452,1.945,1.9517,1.9526,1.9447,1.9447,1.9447,1.9447,1.9447,1.9447,1.9617,1.9583,1.9586,1.9548,1.9545,1.9519,1.9511,1.95,1.9493,1.9462,1.9444,1.9443,1.9436,1.9415,1.9396,1.9396,1.9387,1.9373,1.9375,1.9437,1.9445,1.9454,1.9462,1.9371,1.9371,1.931,1.9309,1.9309]}]]